﻿測定場所 (Monitoring sites),日付 (Measurement date),時間 (Measurement time),線量率 最大値 (max) μGy/h,線量率 最小値 (min) μGy/h,線量率 平均値 (average) μGy/h,
新宿 (Shinjuku),2018-05-13,23:01～24:00,0.0436,0.0353,0.0393,
新宿 (Shinjuku),2018-05-13,22:01～23:00,0.0431,0.0345,0.0390,
新宿 (Shinjuku),2018-05-13,21:01～22:00,0.0485,0.0394,0.0428,
新宿 (Shinjuku),2018-05-13,20:01～21:00,0.0497,0.0418,0.0463,
新宿 (Shinjuku),2018-05-13,19:01～20:00,0.0490,0.0406,0.0450,
新宿 (Shinjuku),2018-05-13,18:01～19:00,0.0507,0.0419,0.0457,
新宿 (Shinjuku),2018-05-13,17:01～18:00,0.0503,0.0431,0.0471,
新宿 (Shinjuku),2018-05-13,16:01～17:00,0.0485,0.0403,0.0448,
新宿 (Shinjuku),2018-05-13,15:01～16:00,0.0483,0.0388,0.0431,
新宿 (Shinjuku),2018-05-13,14:01～15:00,0.0442,0.0359,0.0397,
新宿 (Shinjuku),2018-05-13,13:01～14:00,0.0407,0.0351,0.0371,
新宿 (Shinjuku),2018-05-13,12:01～13:00,0.0404,0.0356,0.0373,
新宿 (Shinjuku),2018-05-13,11:01～12:00,0.0406,0.0353,0.0372,
新宿 (Shinjuku),2018-05-13,10:01～11:00,0.0402,0.0348,0.0372,
新宿 (Shinjuku),2018-05-13,09:01～10:00,0.0405,0.0351,0.0373,
新宿 (Shinjuku),2018-05-13,08:01～09:00,0.0403,0.0350,0.0369,
新宿 (Shinjuku),2018-05-13,07:01～08:00,0.0421,0.0334,0.0367,
新宿 (Shinjuku),2018-05-13,06:01～07:00,0.0407,0.0353,0.0368,
新宿 (Shinjuku),2018-05-13,05:01～06:00,0.0409,0.0353,0.0372,
新宿 (Shinjuku),2018-05-13,04:01～05:00,0.0394,0.0353,0.0368,
新宿 (Shinjuku),2018-05-13,03:01～04:00,0.0391,0.0352,0.0368,
新宿 (Shinjuku),2018-05-13,02:01～03:00,0.0406,0.0347,0.0372,
新宿 (Shinjuku),2018-05-13,01:01～02:00,0.0414,0.0352,0.0368,
新宿 (Shinjuku),2018-05-13,00:01～01:00,0.0401,0.0347,0.0368,
新宿 (Shinjuku),2018-05-12,23:01～24:00,0.0397,0.0348,0.0371,
新宿 (Shinjuku),2018-05-12,22:01～23:00,0.0406,0.0348,0.0369,
新宿 (Shinjuku),2018-05-12,21:01～22:00,0.0401,0.0354,0.0371,
新宿 (Shinjuku),2018-05-12,20:01～21:00,0.0404,0.0350,0.0371,
新宿 (Shinjuku),2018-05-12,19:01～20:00,0.0398,0.0352,0.0372,
新宿 (Shinjuku),2018-05-12,18:01～19:00,0.0423,0.0354,0.0373,
新宿 (Shinjuku),2018-05-12,17:01～18:00,0.0398,0.0346,0.0369,
新宿 (Shinjuku),2018-05-12,16:01～17:00,0.0410,0.0349,0.0374,
新宿 (Shinjuku),2018-05-12,15:01～16:00,0.0410,0.0346,0.0369,
新宿 (Shinjuku),2018-05-12,14:01～15:00,0.0398,0.0349,0.0364,
新宿 (Shinjuku),2018-05-12,13:01～14:00,0.0402,0.0341,0.0370,
新宿 (Shinjuku),2018-05-12,12:01～13:00,0.0409,0.0350,0.0370,
新宿 (Shinjuku),2018-05-12,11:01～12:00,0.0437,0.0347,0.0371,
新宿 (Shinjuku),2018-05-12,10:01～11:00,0.0404,0.0347,0.0372,
新宿 (Shinjuku),2018-05-12,09:01～10:00,0.0411,0.0345,0.0374,
新宿 (Shinjuku),2018-05-12,08:01～09:00,0.0402,0.0351,0.0375,
新宿 (Shinjuku),2018-05-12,07:01～08:00,0.0422,0.0349,0.0377,
新宿 (Shinjuku),2018-05-12,06:01～07:00,0.0409,0.0352,0.0376,
新宿 (Shinjuku),2018-05-12,05:01～06:00,0.0407,0.0353,0.0375,
新宿 (Shinjuku),2018-05-12,04:01～05:00,0.0415,0.0350,0.0375,
新宿 (Shinjuku),2018-05-12,03:01～04:00,0.0408,0.0352,0.0372,
新宿 (Shinjuku),2018-05-12,02:01～03:00,0.0414,0.0351,0.0375,
新宿 (Shinjuku),2018-05-12,01:01～02:00,0.0400,0.0349,0.0372,
新宿 (Shinjuku),2018-05-12,00:01～01:00,0.0422,0.0349,0.0371,
新宿 (Shinjuku),2018-05-11,23:01～24:00,0.0409,0.0349,0.0370,
新宿 (Shinjuku),2018-05-11,22:01～23:00,0.0403,0.0348,0.0369,
新宿 (Shinjuku),2018-05-11,21:01～22:00,0.0409,0.0348,0.0367,
新宿 (Shinjuku),2018-05-11,20:01～21:00,0.0396,0.0347,0.0366,
新宿 (Shinjuku),2018-05-11,19:01～20:00,0.0402,0.0346,0.0371,
新宿 (Shinjuku),2018-05-11,18:01～19:00,0.0396,0.0344,0.0368,
新宿 (Shinjuku),2018-05-11,17:01～18:00,0.0397,0.0347,0.0364,
新宿 (Shinjuku),2018-05-11,16:01～17:00,0.0395,0.0341,0.0366,
新宿 (Shinjuku),2018-05-11,15:01～16:00,0.0420,0.0347,0.0368,
新宿 (Shinjuku),2018-05-11,14:01～15:00,0.0403,0.0344,0.0370,
新宿 (Shinjuku),2018-05-11,13:01～14:00,0.0406,0.0346,0.0366,
新宿 (Shinjuku),2018-05-11,12:01～13:00,0.0404,0.0346,0.0366,
新宿 (Shinjuku),2018-05-11,11:01～12:00,0.0394,0.0339,0.0367,
新宿 (Shinjuku),2018-05-11,10:01～11:00,0.0388,0.0336,0.0367,
新宿 (Shinjuku),2018-05-11,09:01～10:00,0.0411,0.0335,0.0371,
新宿 (Shinjuku),2018-05-11,08:01～09:00,0.0404,0.0346,0.0370,
新宿 (Shinjuku),2018-05-11,07:01～08:00,0.0400,0.0342,0.0373,
新宿 (Shinjuku),2018-05-11,06:01～07:00,0.0401,0.0350,0.0369,
新宿 (Shinjuku),2018-05-11,05:01～06:00,0.0406,0.0347,0.0368,
新宿 (Shinjuku),2018-05-11,04:01～05:00,0.0411,0.0349,0.0369,
新宿 (Shinjuku),2018-05-11,03:01～04:00,0.0413,0.0347,0.0367,
新宿 (Shinjuku),2018-05-11,02:01～03:00,0.0397,0.0344,0.0365,
新宿 (Shinjuku),2018-05-11,01:01～02:00,0.0406,0.0339,0.0366,
新宿 (Shinjuku),2018-05-11,00:01～01:00,0.0384,0.0347,0.0365,
新宿 (Shinjuku),2018-05-10,23:01～24:00,0.0396,0.0338,0.0366,
新宿 (Shinjuku),2018-05-10,22:01～23:00,0.0392,0.0346,0.0366,
新宿 (Shinjuku),2018-05-10,21:01～22:00,0.0404,0.0340,0.0364,
新宿 (Shinjuku),2018-05-10,20:01～21:00,0.0386,0.0347,0.0365,
新宿 (Shinjuku),2018-05-10,19:01～20:00,0.0400,0.0349,0.0366,
新宿 (Shinjuku),2018-05-10,18:01～19:00,0.0388,0.0346,0.0364,
新宿 (Shinjuku),2018-05-10,17:01～18:00,0.0385,0.0345,0.0365,
新宿 (Shinjuku),2018-05-10,16:01～17:00,0.0400,0.0340,0.0366,
新宿 (Shinjuku),2018-05-10,15:01～16:00,0.0403,0.0344,0.0369,
新宿 (Shinjuku),2018-05-10,14:01～15:00,0.0409,0.0353,0.0375,
新宿 (Shinjuku),2018-05-10,13:01～14:00,0.0463,0.0371,0.0412,
新宿 (Shinjuku),2018-05-10,12:01～13:00,0.0529,0.0433,0.0483,
新宿 (Shinjuku),2018-05-10,11:01～12:00,0.0500,0.0394,0.0445,
新宿 (Shinjuku),2018-05-10,10:01～11:00,0.0456,0.0342,0.0393,
新宿 (Shinjuku),2018-05-10,09:01～10:00,0.0406,0.0340,0.0366,
新宿 (Shinjuku),2018-05-10,08:01～09:00,0.0410,0.0344,0.0369,
新宿 (Shinjuku),2018-05-10,07:01～08:00,0.0421,0.0353,0.0382,
新宿 (Shinjuku),2018-05-10,06:01～07:00,0.0441,0.0370,0.0407,
新宿 (Shinjuku),2018-05-10,05:01～06:00,0.0427,0.0348,0.0381,
新宿 (Shinjuku),2018-05-10,04:01～05:00,0.0418,0.0350,0.0377,
新宿 (Shinjuku),2018-05-10,03:01～04:00,0.0393,0.0342,0.0366,
新宿 (Shinjuku),2018-05-10,02:01～03:00,0.0397,0.0342,0.0364,
新宿 (Shinjuku),2018-05-10,01:01～02:00,0.0407,0.0345,0.0367,
新宿 (Shinjuku),2018-05-10,00:01～01:00,0.0390,0.0337,0.0362,
新宿 (Shinjuku),2018-05-09,23:01～24:00,0.0392,0.0344,0.0364,
新宿 (Shinjuku),2018-05-09,22:01～23:00,0.0396,0.0340,0.0362,
新宿 (Shinjuku),2018-05-09,21:01～22:00,0.0392,0.0339,0.0364,
新宿 (Shinjuku),2018-05-09,20:01～21:00,0.0404,0.0338,0.0367,
新宿 (Shinjuku),2018-05-09,19:01～20:00,0.0401,0.0343,0.0365,
新宿 (Shinjuku),2018-05-09,18:01～19:00,0.0393,0.0346,0.0365,
新宿 (Shinjuku),2018-05-09,17:01～18:00,0.0390,0.0334,0.0364,
新宿 (Shinjuku),2018-05-09,16:01～17:00,0.0409,0.0338,0.0367,
新宿 (Shinjuku),2018-05-09,15:01～16:00,0.0406,0.0347,0.0365,
新宿 (Shinjuku),2018-05-09,14:01～15:00,0.0410,0.0354,0.0371,
新宿 (Shinjuku),2018-05-09,13:01～14:00,0.0443,0.0363,0.0387,
新宿 (Shinjuku),2018-05-09,12:01～13:00,0.0459,0.0375,0.0420,
新宿 (Shinjuku),2018-05-09,11:01～12:00,0.0480,0.0395,0.0428,
新宿 (Shinjuku),2018-05-09,10:01～11:00,0.0452,0.0394,0.0416,
新宿 (Shinjuku),2018-05-09,09:01～10:00,0.0471,0.0394,0.0424,
新宿 (Shinjuku),2018-05-09,08:01～09:00,0.0479,0.0389,0.0438,
新宿 (Shinjuku),2018-05-09,07:01～08:00,0.0525,0.0433,0.0472,
新宿 (Shinjuku),2018-05-09,06:01～07:00,0.0503,0.0422,0.0463,
新宿 (Shinjuku),2018-05-09,05:01～06:00,0.0522,0.0435,0.0472,
新宿 (Shinjuku),2018-05-09,04:01～05:00,0.0493,0.0422,0.0457,
新宿 (Shinjuku),2018-05-09,03:01～04:00,0.0494,0.0422,0.0460,
新宿 (Shinjuku),2018-05-09,02:01～03:00,0.0484,0.0394,0.0444,
新宿 (Shinjuku),2018-05-09,01:01～02:00,0.0466,0.0406,0.0434,
新宿 (Shinjuku),2018-05-09,00:01～01:00,0.0479,0.0405,0.0442,
新宿 (Shinjuku),2018-05-08,23:01～24:00,0.0470,0.0410,0.0435,
新宿 (Shinjuku),2018-05-08,22:01～23:00,0.0476,0.0396,0.0443,
新宿 (Shinjuku),2018-05-08,21:01～22:00,0.0485,0.0419,0.0450,
新宿 (Shinjuku),2018-05-08,20:01～21:00,0.0510,0.0445,0.0472,
新宿 (Shinjuku),2018-05-08,19:01～20:00,0.0514,0.0421,0.0481,
新宿 (Shinjuku),2018-05-08,18:01～19:00,0.0508,0.0399,0.0466,
新宿 (Shinjuku),2018-05-08,17:01～18:00,0.0498,0.0357,0.0425,
新宿 (Shinjuku),2018-05-08,16:01～17:00,0.0404,0.0342,0.0367,
新宿 (Shinjuku),2018-05-08,15:01～16:00,0.0403,0.0344,0.0365,
新宿 (Shinjuku),2018-05-08,14:01～15:00,0.0386,0.0342,0.0365,
新宿 (Shinjuku),2018-05-08,13:01～14:00,0.0390,0.0342,0.0366,
新宿 (Shinjuku),2018-05-08,12:01～13:00,0.0402,0.0348,0.0366,
新宿 (Shinjuku),2018-05-08,11:01～12:00,0.0407,0.0351,0.0375,
新宿 (Shinjuku),2018-05-08,10:01～11:00,0.0406,0.0351,0.0374,
新宿 (Shinjuku),2018-05-08,09:01～10:00,0.0402,0.0348,0.0369,
新宿 (Shinjuku),2018-05-08,08:01～09:00,0.0408,0.0352,0.0372,
新宿 (Shinjuku),2018-05-08,07:01～08:00,0.0405,0.0344,0.0370,
新宿 (Shinjuku),2018-05-08,06:01～07:00,0.0405,0.0347,0.0370,
新宿 (Shinjuku),2018-05-08,05:01～06:00,0.0419,0.0358,0.0379,
新宿 (Shinjuku),2018-05-08,04:01～05:00,0.0434,0.0361,0.0396,
新宿 (Shinjuku),2018-05-08,03:01～04:00,0.0476,0.0379,0.0425,
新宿 (Shinjuku),2018-05-08,02:01～03:00,0.0466,0.0395,0.0433,
新宿 (Shinjuku),2018-05-08,01:01～02:00,0.0440,0.0369,0.0405,
新宿 (Shinjuku),2018-05-08,00:01～01:00,0.0465,0.0386,0.0428,
新宿 (Shinjuku),2018-05-07,23:01～24:00,0.0480,0.0414,0.0445,
新宿 (Shinjuku),2018-05-07,22:01～23:00,0.0490,0.0421,0.0455,
新宿 (Shinjuku),2018-05-07,21:01～22:00,0.0536,0.0441,0.0485,
新宿 (Shinjuku),2018-05-07,20:01～21:00,0.0542,0.0476,0.0508,
新宿 (Shinjuku),2018-05-07,19:01～20:00,0.0551,0.0451,0.0513,
新宿 (Shinjuku),2018-05-07,18:01～19:00,0.0580,0.0492,0.0540,
新宿 (Shinjuku),2018-05-07,17:01～18:00,0.0515,0.0416,0.0459,
新宿 (Shinjuku),2018-05-07,16:01～17:00,0.0504,0.0399,0.0431,
新宿 (Shinjuku),2018-05-07,15:01～16:00,0.0468,0.0384,0.0427,
新宿 (Shinjuku),2018-05-07,14:01～15:00,0.0469,0.0378,0.0423,
新宿 (Shinjuku),2018-05-07,13:01～14:00,0.0461,0.0410,0.0431,
新宿 (Shinjuku),2018-05-07,12:01～13:00,0.0476,0.0363,0.0433,
新宿 (Shinjuku),2018-05-07,11:01～12:00,0.0510,0.0349,0.0375,
新宿 (Shinjuku),2018-05-07,10:01～11:00,0.0409,0.0353,0.0370,
新宿 (Shinjuku),2018-05-07,09:01～10:00,0.0400,0.0357,0.0371,
新宿 (Shinjuku),2018-05-07,08:01～09:00,0.0402,0.0344,0.0372,
新宿 (Shinjuku),2018-05-07,07:01～08:00,0.0409,0.0348,0.0374,
新宿 (Shinjuku),2018-05-07,06:01～07:00,0.0413,0.0356,0.0376,
新宿 (Shinjuku),2018-05-07,05:01～06:00,0.0421,0.0360,0.0390,
新宿 (Shinjuku),2018-05-07,04:01～05:00,0.0418,0.0354,0.0384,
新宿 (Shinjuku),2018-05-07,03:01～04:00,0.0432,0.0355,0.0392,
新宿 (Shinjuku),2018-05-07,02:01～03:00,0.0465,0.0388,0.0426,
新宿 (Shinjuku),2018-05-07,01:01～02:00,0.0461,0.0380,0.0413,
新宿 (Shinjuku),2018-05-07,00:01～01:00,0.0510,0.0392,0.0449,
